GW7313 Weather Reports


time (UTC)temp
C
wind
direction
speed
KPH
gust
KPH
rain 1hr
cm
rain 24hr
cm
rain mn
cm
humidity
%
barometer
mb
20260507042620 12 354 1.6 1.6 0.00 0.00 0.00 88 1022.6
20260507041628 13 218 4.8 8.0 0.00 0.00 0.00 88 1022.5
20260507040620 13 228 4.8 11.3 0.00 0.00 0.00 87 1022.5
20260507035628 13 180 3.2 8.0 0.00 0.00 0.00 87 1022.4
20260507034620 13 216 3.2 4.8 0.00 0.00 0.00 87 1022.3
20260507033648 13 248 4.8 8.0 0.00 0.00 0.00 85 1022.2
20260507032652 13 207 4.8 8.0 0.00 0.00 0.00 85 1022.2
20260507031628 13 232 3.2 9.7 0.00 0.00 0.00 84 1022.1
20260507030620 13 213 4.8 8.0 0.00 0.00 0.00 84 1022.1
20260507025628 13 197 4.8 9.7 0.00 0.00 0.00 83 1022.0
20260507024641 13 219 4.8 8.0 0.00 0.00 0.00 84 1022.0
20260507023644 13 181 4.8 9.7 0.00 0.00 0.00 84 1021.9
20260507022702 13 233 4.8 8.0 0.00 0.00 0.00 83 1021.8
20260507021629 13 104 3.2 4.8 0.00 0.00 0.00 83 1021.8
20260507020620 13 199 3.2 8.0 0.00 0.00 0.00 83 1021.8
20260507015649 13 210 6.4 11.3 0.00 0.00 0.00 83 1021.8
20260507014640 13 205 6.4 11.3 0.00 0.00 0.00 83 1021.8
20260507013628 13 203 4.8 12.9 0.00 0.00 0.00 83 1021.9
20260507012620 13 252 3.2 8.0 0.00 0.00 0.00 83 1021.9
20260507011648 13 236 3.2 8.0 0.00 0.00 0.00 83 1021.9
20260507010620 13 227 6.4 11.3 0.00 0.00 0.00 83 1021.9
20260507005710 13 209 8.0 14.5 0.00 0.00 0.00 83 1022.0
20260507004621 13 188 8.0 16.1 0.00 0.00 0.00 83 1022.0
20260507003628 13 218 4.8 9.7 0.00 0.00 0.00 83 1022.0
20260507002620 13 168 8.0 24.1 0.00 0.00 0.00 83 1022.0
20260507001629 13 194 4.8 9.7 0.00 0.00 0.00 83 1022.0
20260507000701 13 224 8.0 20.9 0.00 0.00 0.00 83 1022.0
20260506235628 13 211 8.0 12.9 0.00 0.00 0.00 82 1022.0
20260506234620 13 207 6.4 12.9 0.00 0.00 0.00 82 1022.1
20260506233628 13 211 9.7 17.7 0.00 0.00 0.00 82 1022.1
20260506232620 13 211 6.4 11.3 0.00 0.00 0.00 82 1022.1
20260506231629 13 211 9.7 16.1 0.00 0.00 0.00 81 1022.1
20260506230620 13 210 4.8 8.0 0.00 0.00 0.00 81 1022.2
20260506225628 13 228 9.7 14.5 0.00 0.00 0.00 82 1022.2
20260506224620 13 187 9.7 17.7 0.00 0.00 0.00 81 1022.2
20260506223649 13 231 3.2 16.1 0.00 0.00 0.00 82 1022.2
20260506222620 13 269 4.8 12.9 0.00 0.00 0.00 81 1022.2
20260506221628 14 188 4.8 9.7 0.00 0.00 0.00 79 1022.3
20260506220621 14 208 9.7 17.7 0.00 0.00 0.00 78 1022.3
20260506215628 14 264 6.4 12.9 0.00 0.00 0.00 77 1022.3
20260506214620 14 207 11.3 20.9 0.00 0.00 0.00 78 1022.2
20260506213629 14 212 11.3 17.7 0.00 0.00 0.00 78 1022.3
20260506212620 13 214 11.3 17.7 0.00 0.00 0.00 79 1022.4
20260506211628 14 198 11.3 17.7 0.00 0.00 0.00 78 1022.4
20260506210620 14 211 9.7 16.1 0.00 0.00 0.00 77 1022.4
20260506205628 14 222 9.7 22.5 0.00 0.00 0.00 78 1022.3
20260506204620 14 225 8.0 16.1 0.00 0.00 0.00 78 1022.3
20260506203644 15 268 4.8 9.7 0.00 0.00 0.00 77 1022.2
20260506202621 15 259 3.2 9.7 0.00 0.00 0.00 78 1022.3
20260506201629 14 219 9.7 14.5 0.00 0.00 0.00 78 1022.2
20260506200620 13 200 11.3 22.5 0.00 0.00 0.00 79 1022.2
20260506195649 13 211 8.0 16.1 0.00 0.00 0.00 80 1022.2
20260506194621 13 219 9.7 16.1 0.00 0.00 0.00 81 1022.1
20260506193628 13 223 4.8 11.3 0.00 0.00 0.00 81 1022.1
20260506192620 13 249 8.0 16.1 0.00 0.00 0.00 83 1022.1
20260506191629 13 236 4.8 9.7 0.00 0.00 0.00 83 1022.0
20260506190621 13 204 6.4 14.5 0.00 0.00 0.00 85 1021.9
20260506185629 13 234 4.8 9.7 0.00 0.00 0.00 86 1022.0
20260506184621 13 223 4.8 9.7 0.00 0.00 0.00 86 1021.9
20260506183629 12 215 8.0 14.5 0.00 0.00 0.00 87 1022.1
20260506182620 12 233 6.4 14.5 0.00 0.00 0.00 89 1022.1
20260506181629 12 223 6.4 12.9 0.00 0.00 0.00 90 1022.1
20260506180620 12 327 4.8 8.0 0.00 0.00 0.00 92 1022.1
20260506175628 12 225 4.8 12.9 0.00 0.00 0.00 94 1021.7
20260506174620 12 325 4.8 9.7 0.00 0.00 0.00 94 1021.7
20260506173628 12 229 8.0 14.5 0.00 0.00 0.00 95 1021.6
20260506172702 12 172 4.8 11.3 0.00 0.00 0.00 96 1021.7
20260506171628 12 199 4.8 9.7 0.00 0.00 0.00 97 1021.7
20260506170621 12 201 8.0 14.5 0.00 0.00 0.00 96 1021.9
20260506165644 12 272 4.8 11.3 0.00 0.00 0.00 96 1021.9
20260506164641 12 278 4.8 9.7 0.00 0.00 0.00 95 1021.7
20260506163629 12 257 4.8 8.0 0.00 0.00 0.00 96 1021.8
20260506162641 11 216 4.8 9.7 0.00 0.00 0.00 96 1021.5
20260506161629 11 213 9.7 14.5 0.00 0.00 0.00 96 1021.3
20260506160640 11 199 8.0 12.9 0.00 0.00 0.00 97 1021.1
20260506155628 11 217 9.7 17.7 0.00 0.00 0.00 98 1021.2
20260506154621 11 208 9.7 16.1 0.00 0.00 0.00 99 1021.2
20260506153628 11 226 6.4 11.3 0.00 0.00 0.00 99 1021.3
20260506152621 11 149 3.2 4.8 0.00 0.00 0.00 99 1021.5
20260506151629 11 233 4.8 9.7 0.00 0.00 0.00 99 1021.4
20260506150621 11 239 4.8 8.0 0.00 0.00 0.00 99 1021.3
20260506145630 11 190 4.8 8.0 0.00 0.00 0.00 99 1021.0
20260506144621 11 345 1.6 3.2 0.00 0.00 0.00 99 1021.2
20260506143629 11 244 3.2 8.0 0.00 0.00 0.00 98 1021.2
20260506142621 11 305 3.2 8.0 0.00 0.00 0.00 97 1021.3
20260506141628 11 265 4.8 9.7 0.00 0.00 0.00 97 1021.2
20260506140621 11 278 3.2 4.8 0.00 0.00 0.00 97 1020.9
20260506135629 11 192 3.2 8.0 0.00 0.00 0.00 97 1020.9
20260506134657 11 262 3.2 4.8 0.00 0.00 0.00 96 1021.0
20260506133629 11 325 1.6 3.2 0.00 0.00 0.00 96 1020.8
20260506132621 11 265 4.8 8.0 0.00 0.00 0.00 95 1020.9
20260506131629 11 233 6.4 11.3 0.00 0.00 0.00 95 1020.8
20260506130621 11 278 1.6 4.8 0.00 0.00 0.00 95 1020.8
20260506125645 12 159 4.8 11.3 0.00 0.00 0.00 95 1020.2
20260506124621 11 198 4.8 11.3 0.00 0.00 0.00 95 1020.5
20260506123710 12 215 6.4 9.7 0.00 0.00 0.00 95 1020.3
20260506122621 12 219 6.4 11.3 0.00 0.00 0.00 94 1020.3
20260506121649 12 234 4.8 11.3 0.00 0.00 0.00 94 1020.2
20260506120621 12 220 4.8 11.3 0.00 0.00 0.00 94 1020.2
20260506115629 12 219 6.4 12.9 0.00 0.00 0.00 93 1020.1
20260506114621 12 234 4.8 9.7 0.00 0.00 0.00 93 1020.0
20260506113629 12 205 6.4 9.7 0.00 0.00 0.00 93 1019.9
20260506112621 12 233 6.4 11.3 0.00 0.00 0.00 93 1019.9
20260506111629 12 213 6.4 11.3 0.00 0.00 0.00 93 1019.8
20260506110621 12 221 3.2 8.0 0.00 0.00 0.00 93 1019.8
20260506105629 12 191 4.8 8.0 0.00 0.00 0.00 93 1019.7
20260506104641 12 218 4.8 9.7 0.00 0.00 0.00 93 1019.7
20260506103629 12 263 1.6 4.8 0.00 0.00 0.00 94 1019.6
20260506102621 12 299 3.2 4.8 0.00 0.00 0.00 93 1019.6
20260506101629 12 313 1.6 4.8 0.00 0.00 0.00 93 1019.5
20260506100637 12 253 3.2 8.0 0.00 0.00 0.00 93 1019.5
20260506095629 12 261 4.8 8.0 0.00 0.00 0.00 92 1019.5
20260506094621 12 303 3.2 3.2 0.00 0.00 0.00 92 1019.3
20260506093629 12 277 6.4 12.9 0.00 0.00 0.00 92 1019.2
20260506092621 12 212 4.8 9.7 0.00 0.00 0.00 92 1019.2
20260506091629 12 213 6.4 11.3 0.00 0.00 0.00 92 1019.1
20260506090621 12 294 1.6 3.2 0.00 0.00 0.00 92 1019.0
20260506085629 12 227 4.8 9.7 0.00 0.00 0.00 92 1019.0
20260506084621 12 204 3.2 9.7 0.00 0.00 0.00 92 1018.9
20260506083650 12 237 4.8 9.7 0.00 0.00 0.00 91 1018.8
20260506082621 12 202 6.4 14.5 0.00 0.00 0.00 91 1018.7
20260506081629 12 222 1.6 9.7 0.00 0.00 0.00 91 1018.6
20260506080621 13 212 6.4 11.3 0.00 0.00 0.00 90 1018.5
20260506072641 13 202 3.2 9.7 0.00 0.00 0.00 91 1018.3
20260506071629 12 311 1.6 3.2 0.00 0.00 0.00 92 1018.3
20260506070621 13 296 1.6 3.2 0.00 0.00 0.00 91 1018.3
20260506061629 14 258 4.8 8.0 0.00 0.00 0.00 86 1017.9
20260506060621 15 216 1.6 4.8 0.00 0.00 0.00 85 1017.7
20260506050622 15 188 6.4 11.3 0.00 0.00 0.00 83 1017.1
20260506044621 16 218 3.2 11.3 0.00 0.00 0.00 83 1017.0
20260506043629 16 209 3.2 8.0 0.00 0.00 0.00 83 1017.0